Location: Unspecified
(51.4818°N, 0.0000°E)
Time: 07:08:10
(UTC+00:00)

SOZ - Visible Passes

Search period start: 04 April 2026 00:00
Search period end: 14 April 2026 00:00
Orbit: 789 x 826 km, 66.6° (Epoch: 29 March)

Date Brightness Start Highest point End Pass type
(mag) Time Alt. Az. Time Alt. Az. Time Alt. Az.
4 Apr 9.1 02:56:05 10° SE 02:58:19 13° ESE 03:00:33 10° ENE visible
4 Apr 7.0 04:35:44 10° SSW 04:41:06 66° ESE 04:46:34 10° NE visible
5 Apr 7.2 04:10:08 10° SSW 04:15:25 56° ESE 04:20:48 10° NE visible
6 Apr 7.4 03:44:39 10° S 03:49:45 47° ESE 03:55:00 10° NE visible
7 Apr 7.7 03:19:57 14° S 03:24:06 39° ESE 03:29:10 10° NE visible
8 Apr 7.9 02:55:11 18° SSE 02:58:28 33° ESE 03:03:19 10° NE visible
8 Apr 6.9 04:36:42 10° SW 04:42:04 57° NW 04:47:32 10° NE visible
9 Apr 8.1 02:30:21 19° SSE 02:32:51 27° ESE 02:37:25 10° NE visible
9 Apr 6.7 04:11:26 13° SW 04:16:18 66° NW 04:21:49 10° NE visible
10 Apr 8.3 02:05:27 19° SE 02:07:15 23° ESE 02:11:28 10° ENE visible
10 Apr 6.6 03:46:32 19° SW 03:50:32 77° NW 03:56:05 10° NE visible
11 Apr 8.4 01:40:31 18° ESE 01:41:40 19° ESE 01:45:25 10° ENE visible
11 Apr 6.6 03:21:35 26° SW 03:24:47 89° NW 03:30:21 10° NE visible
12 Apr 8.6 01:15:31 15° ESE 01:16:07 16° ESE 01:19:15 10° ENE visible
12 Apr 6.6 02:56:35 34° SSW 02:59:03 79° SE 03:04:36 10° NE visible
13 Apr 8.8 00:50:29 13° ESE 00:50:34 13° ESE 00:52:50 10° ENE visible
13 Apr 6.7 02:31:33 41° S 02:33:21 67° ESE 02:38:50 10° NE visible
13 Apr 7.6 04:12:37 10° W 04:17:36 34° NW 04:22:39 10° NNE visible
